Location: Oroua River
(40.4333°S, 175.4333°E)
Time: 12:02:35
(UTC+00:00)

Lacrosse 5 rocket - Pass Details

Date: 03 February 2023
Orbit: 455 x 612 km, 57.0° (Epoch: 30 March)

Event Time Altitude Azimuth Distance (km) Brightness Sun altitude
Exits shadow 15:16:37 - 239° (WSW) 2,465 4.5 -21.5°
Reaches altitude 10° 15:18:50 10° 218° (SW) 2,012 4.3 -21.2°
Maximum altitude 15:20:38 12° 195° (SSW) 1,880 4.4 -20.9°
Drops below altitude 10° 15:22:27 10° 171° (S) 2,016 4.9 -20.7°
Sets 15:26:15 0° 140° (SE) 2,915 6.6 -20.2°
